Republic Airport
KFRG : rendu visible

Aérodrome :











RETROUVEZ-NOUS SUR...

 
LOGIN :

S'inscrire | Disclaimer

   EN    FR    IT 

 









Légende :    VFR   VFR Marginal   IFR   IFR Intensif   IFR Très Intensif
Visi : 
Plafond : 
>= 8 km
>= 3000ft
5 à 8 km
1000 à 3000 ft
1500m à 5 km
500 à 1000 ft
800 à 1500m
200 à 500 ft
< 800m
< 200 ft
Symboles :   Orages  Brouillard  Fortes neiges  Fortes précipitations  Vent > 20 kt






- Altitude de l'aérodrome : 82 ft


KFRG - Republic

DERNIER METAR :
  • 221553Z AUTO 29010KT 10SM CLR 05/M13 A3027 RMK AO2 SLP249 T00501133

METARs EXPIRÉS :
  • 221453Z AUTO 30008KT 10SM CLR 04/M13 A3028 RMK AO2 SLP254 T00441128 50001
  • 221353Z AUTO 27010KT 10SM CLR 02/M12 A3030 RMK AO2 SLP259 T00221122

TAF N/A



MET'MAP, la Météo Aéronautique d'un coup d'oeil ! - Copyright ORBIFLY Décembre 2007 - Disclaimer

ORBIFLY MET'MAP TEAM :

Programmation & Développement : Alexandra Zaïnal
Sur une idée originale de : Baudouin d'Aumeries
Assistance à la programmation : Marc-Olivier Méhu
Soutien technique & logistique : Manuel Goepfert

Contact : metmap@orbifly.com




SOURCES & CREDITS :

   NOAA       Earth
Advisory